Dewpoint
67 68 70 70 70 70 70 71 70 71 70 71 71 71 71 70 70 69 69 69 69 69 68 68 69 69 67 68 68 68 67 66 66 66 65 65 64 64 65 65 65 65 65
66 69 70 70 70 70 70 70 70 71 71 71 71 70 70 70 70 69 69 69 69 68 67 68 69 67 67 67 68 68 67 67 66 66 65 65 64 64 65 65 65 64 64
68 69 70 70 70 70 69 70 70 70 70 70 70 70 70 70 69 69 69 69 68 67 67 66 67 67 67 67 67 67 67 66 65 65 65 63 63 63 64 64 64 63 63
68 69 69 70 70 70 70 70 70 70 70 70 70 69 69 69 69 69 69 68 67 67 65 66 67 66 66 66 66 65 65 64 63 62 62 62 62 62 63 63 62 61 61
68 69 69 69 70 70 70 70 70 70 70 69 69 69 69 68 68 68 68 67 66 65 64 64 65 66 66 65 65 64 63 62 61 59 60 60 61 61 61 60 60 60 59
68 69 68 69 69 70 70 70 70 70 69 69 69 68 68 68 68 68 67 67 66 64 64 65 64 66 65 65 64 63 62 60 58 58 59 60 59 60 59 58 59 59 58
66 69 68 68 69 70 70 70 70 70 69 69 68 68 67 67 66 67 66 66 65 65 65 64 64 64 65 64 64 62 60 59 57 57 58 58 59 58 58 56 55 55 55
65 67 68 68 69 69 70 70 70 69 69 68 66 68 66 65 63 64 66 66 65 64 64 64 65 65 63 61 62 61 59 57 56 56 57 58 58 56 56 56 55 55 55
65 66 68 68 68 69 70 70 69 69 68 67 65 65 65 63 63 63 65 64 65 64 64 65 64 62 60 60 61 59 58 57 55 55 56 57 57 56 56 55 53 54 54
64 65 66 67 68 69 68 69 69 68 68 66 63 62 64 64 63 63 63 64 64 64 64 64 62 60 58 59 59 59 58 57 55 55 56 57 57 56 55 54 54 54 54
64 64 65 65 66 66 67 67 68 68 66 65 63 63 64 64 63 63 64 65 65 65 64 63 61 58 59 60 59 58 56 55 55 56 56 57 56 55 55 54 54 54 54
62 63 64 63 63 62 63 64 65 66 66 65 63 64 62 61 61 61 64 64 64 64 64 62 60 58 58 58 58 55 55 55 55 56 56 57 56 55 55 54 54 54 54
60 61 62 62 61 60 61 60 61 61 63 64 63 63 61 61 61 64 64 64 63 63 63 61 59 55 55 56 53 54 54 54 55 55 57 57 56 55 55 54 54 54 53
58 60 61 62 60 60 61 60 60 60 62 63 63 62 62 61 62 61 62 63 62 61 61 59 56 52 52 52 53 54 54 54 55 55 57 57 56 55 54 54 54 54 53
57 59 61 61 60 60 60 59 59 59 60 62 62 63 62 61 62 61 62 62 61 59 59 55 53 51 51 52 53 53 53 54 55 56 57 56 56 55 54 54 54 53 53
57 60 61 61 61 60 60 59 58 59 60 61 62 62 62 61 61 62 62 61 59 57 55 54 51 50 50 52 52 53 53 54 55 55 56 56 56 55 55 54 54 53 53
57 60 60 61 60 59 59 58 59 59 60 59 60 61 62 62 62 62 61 59 57 55 53 51 50 49 50 52 52 53 53 54 55 55 55 55 56 55 55 55 54 53 53
59 60 60 61 60 59 60 59 60 60 60 60 60 60 61 62 61 61 59 58 56 53 51 50 50 49 49 52 52 53 53 54 54 54 55 55 55 55 55 55 55 54 53
59 60 60 60 60 59 60 60 60 59 60 61 61 60 60 62 61 59 58 56 54 51 49 49 50 49 49 51 52 52 53 53 54 54 54 54 54 54 54 55 55 55 55
59 59 59 60 60 60 61 61 60 59 60 61 61 60 60 62 60 59 56 54 53 49 48 49 50 51 50 51 51 52 52 53 53 53 53 53 53 53 53 54 55 54 54
58 58 58 59 59 59 59 59 58 58 60 60 61 60 60 61 60 58 55 54 51 47 47 50 51 49 50 50 49 49 50 52 52 53 53 53 53 53 53 53 53 54 54
57 57 58 58 58 58 59 59 59 59 60 61 61 62 61 61 60 58 54 54 51 47 48 51 51 51 49 49 47 46 45 47 50 51 52 52 52 52 52 52 52 53 53
56 56 57 58 58 57 57 58 58 59 60 59 60 61 62 62 61 58 55 54 51 50 48 52 52 51 48 48 47 45 42 42 45 46 50 52 51 51 52 52 52 52 53
56 56 57 57 58 57 57 57 58 57 57 58 59 60 61 62 61 61 57 55 52 52 48 52 53 52 50 47 47 45 44 44 41 41 45 47 51 51 51 51 51 51 52
56 56 56 57 57 57 57 56 56 56 56 58 59 59 60 61 61 61 59 56 54 52 54 52 54 52 49 48 46 47 47 48 45 42 41 42 45 47 50 51 51 51 51
55 55 56 56 56 57 57 56 55 54 55 55 57 58 59 60 60 60 60 58 57 56 56 54 54 52 50 48 48 47 47 46 47 46 45 44 42 43 45 47 50 51 51
Wind_Speed
10 14 17 16 15 15 14 15 17 19 20 22 26 29 30 31 31 29 28 26 23 23 25 23 23 24 22 23 24 23 23 21 23 22 23 22 23 22 22 21 21 19 23
14 16 19 18 19 19 18 18 17 19 20 22 25 27 28 28 27 25 23 23 25 25 25 26 24 23 23 25 23 22 22 23 23 23 24 23 22 21 22 22 22 21 23
16 16 19 19 20 20 20 20 19 18 20 21 23 26 27 27 27 26 23 22 22 24 25 24 23 24 25 25 25 24 25 23 22 21 20 16 17 21 21 21 22 22 22
17 16 17 21 21 21 20 20 21 21 21 22 21 24 23 24 24 23 23 21 21 22 24 23 23 24 25 24 24 24 24 24 22 21 16 15 15 20 21 21 22 21 20
17 15 16 23 23 21 22 22 22 23 23 22 22 24 24 24 24 24 23 23 22 21 22 23 23 24 23 24 24 24 23 22 19 17 16 14 13 18 19 21 20 20 16
17 17 17 23 23 22 21 22 23 25 24 24 22 25 23 22 20 20 22 24 22 21 23 23 24 23 22 21 22 21 22 22 18 16 14 15 14 19 18 19 20 18 17
19 18 18 23 22 22 23 23 23 23 23 25 30 28 30 24 17 15 18 19 23 20 20 23 23 22 20 21 22 22 20 20 17 16 14 12 14 20 19 20 18 18 17
21 17 16 21 21 21 21 22 23 23 23 24 29 21 25 30 25 11 13 16 21 20 22 24 22 21 20 19 24 20 20 18 15 15 17 14 17 17 19 19 18 18 18
13 16 14 17 18 20 20 21 23 24 25 26 20 25 33 26 23 19 17 20 21 20 20 20 21 21 22 21 22 22 18 18 16 14 15 11 19 18 18 18 18 18 18
14 16 18 16 16 17 18 22 23 22 23 24 25 20 22 26 30 32 22 18 24 23 18 18 19 20 20 25 24 21 17 17 17 15 13 13 18 18 18 18 18 18 18
12 15 16 17 17 17 17 15 20 25 17 26 26 23 22 19 23 30 23 18 19 23 20 18 18 18 17 25 26 22 16 11 15 13 12 19 19 19 18 17 17 16 17
18 17 16 16 17 15 14 15 15 12 14 20 24 21 19 17 18 18 23 22 22 21 20 19 19 19 18 18 16 17 12 13 12 13 11 18 20 19 18 18 17 16 15
21 16 18 18 17 17 14 13 13 12 11 16 26 23 19 15 16 14 15 19 16 19 12 16 17 13 15 18 12 13 14 12 11 11 12 15 17 18 18 17 17 17 15
21 22 20 18 17 16 13 13 12 12 12 14 21 28 21 18 17 18 16 18 16 15 14 13 12 12 14 16 16 17 14 13 12 10 12 14 15 17 17 16 16 16 16
21 20 21 19 17 16 15 12 11 13 15 14 16 21 25 22 21 19 17 19 15 16 15 16 15 14 14 14 14 18 16 15 13 11 12 17 16 16 16 15 15 16 14
22 22 20 23 19 16 15 15 14 13 13 15 16 21 26 26 23 22 18 19 16 16 15 15 17 17 13 15 15 14 16 15 14 11 11 14 16 15 15 15 14 14 14
23 20 25 22 16 17 16 15 13 12 13 14 17 20 22 27 26 22 21 18 16 16 17 15 14 15 13 12 15 15 15 15 14 14 13 13 14 15 14 14 14 14 13
19 24 20 18 19 17 15 15 12 11 11 13 16 20 25 24 33 22 21 19 16 17 17 17 18 18 15 15 15 13 13 13 14 13 12 13 13 12 13 12 11 12 13
23 23 22 19 21 20 15 13 13 12 12 10 16 18 22 19 26 22 19 17 19 17 18 18 14 18 17 16 16 15 15 14 14 12 14 15 14 12 10 12 13 11 12
22 22 21 19 19 19 13 13 11 10 8 8 5 17 23 16 21 20 19 18 20 18 17 15 18 11 14 16 13 13 12 13 13 13 14 12 13 11 12 12 12 13 15
20 24 24 23 21 18 11 13 11 11 10 9 6 20 21 20 22 21 19 20 19 21 20 21 14 20 12 14 15 10 4 5 11 11 11 13 13 13 13 13 13 12 13
24 24 23 23 22 18 15 10 7 11 8 8 10 17 21 21 22 20 21 21 21 20 20 20 21 13 7 19 11 10 6 1 6 7 9 11 13 9 13 15 15 15 15
27 27 26 24 22 18 15 13 11 11 10 9 12 13 17 22 22 23 22 22 23 21 23 23 21 21 17 14 17 8 7 6 7 6 15 13 12 15 14 15 16 16 16
25 20 20 22 22 19 17 15 18 11 16 9 13 14 13 17 20 20 22 24 26 21 24 21 18 19 17 22 7 6 6 8 5 5 4 12 12 14 16 14 14 16 17
18 22 20 20 20 18 18 16 16 16 11 11 13 15 16 16 22 20 23 23 24 22 21 24 19 18 17 20 16 9 7 5 5 4 4 7 7 11 12 15 16 16 17
15 15 20 22 21 18 18 18 18 17 15 12 13 16 19 17 22 24 23 23 22 21 20 21 18 17 18 18 11 14 14 8 7 5 3 3 8 9 17 15 16 18 17
Wind_Direction
218 195 184 168 146 134 135 133 126 124 126 125 128 133 135 136 135 137 137 135 130 127 127 126 123 125 123 121 119 117 118 117 111 111 108 105 105 104 100 94 91 94 94
170 184 178 165 151 144 142 135 133 128 128 130 130 131 133 132 130 131 132 133 134 130 134 129 126 132 131 127 119 114 112 108 110 109 108 107 105 104 100 96 94 97 93
167 176 176 167 158 152 148 142 140 134 130 131 129 130 133 135 135 135 135 137 135 137 137 135 136 134 132 125 117 113 110 108 107 104 100 100 111 107 102 99 97 93 98
168 173 179 172 164 157 150 147 145 142 139 138 136 132 130 130 133 137 138 139 139 142 140 139 137 136 131 122 118 114 112 108 105 104 102 106 111 110 108 102 104 100 95
168 176 186 177 168 161 154 152 149 147 149 148 141 135 137 141 144 145 145 144 147 148 149 147 141 136 128 124 121 117 113 108 102 99 98 102 109 111 105 94 90 88 92
172 180 191 182 171 163 160 159 158 156 155 149 149 144 140 139 144 149 147 148 149 155 153 146 142 137 131 122 121 119 116 109 103 98 99 103 105 107 106 104 101 102 97
181 185 187 183 173 169 167 164 163 162 157 158 161 152 145 140 132 152 151 153 148 154 150 140 141 137 129 125 126 124 121 118 114 110 101 103 114 120 119 114 114 111 115
180 181 181 183 176 172 172 169 168 169 166 173 162 158 144 134 143 175 159 165 145 151 143 142 138 136 122 120 128 127 125 121 113 112 108 116 122 129 124 121 120 120 113
170 171 174 180 179 174 175 176 177 180 175 173 158 153 138 146 150 156 194 179 141 144 144 140 140 136 123 127 133 134 129 128 123 114 110 125 129 128 129 126 128 122 120
174 175 172 174 174 176 186 185 189 188 186 162 160 167 155 157 169 158 206 181 147 145 145 146 143 139 137 139 139 132 134 118 111 113 120 130 131 134 134 132 128 126 124
185 181 171 174 181 184 184 183 191 202 181 164 166 168 161 160 166 173 185 167 157 146 147 149 145 132 127 138 137 134 124 127 118 123 128 145 144 140 136 136 132 130 129
198 197 180 178 183 184 185 183 184 183 176 177 174 171 168 169 169 192 162 165 167 149 152 154 145 130 130 128 134 128 119 123 131 136 155 154 145 144 143 141 138 133 131
204 197 190 183 186 183 181 182 184 185 173 177 177 177 176 173 176 177 162 163 163 141 152 151 150 138 145 137 144 125 125 129 139 141 160 152 150 149 145 147 141 140 138
203 202 190 186 186 189 179 182 187 183 175 181 185 183 174 174 178 174 173 159 150 150 157 154 155 140 142 147 142 129 134 137 139 149 155 153 154 151 151 153 147 145 144
219 204 190 182 188 189 188 187 182 185 188 174 176 186 180 177 178 173 174 163 155 147 163 159 153 143 144 143 140 142 140 142 147 156 156 157 160 159 158 160 153 154 149
217 203 186 187 186 181 193 185 185 173 178 179 178 190 191 179 178 180 174 159 155 158 160 164 163 151 158 153 141 139 143 147 149 156 158 165 165 163 165 167 166 158 157
209 183 188 184 182 182 191 188 184 179 175 189 203 200 196 181 175 174 168 156 158 154 155 154 153 149 154 148 140 143 146 149 157 163 167 171 168 171 173 174 174 169 164
186 182 174 175 184 190 190 189 188 190 182 195 201 203 212 206 166 167 156 157 155 151 156 165 162 151 165 145 143 152 148 154 160 164 171 174 178 179 180 179 184 180 181
179 167 173 177 182 189 194 186 183 185 200 224 219 186 192 193 148 152 148 157 153 160 165 173 169 165 159 146 154 151 157 160 162 169 181 187 186 182 182 190 193 198 199
162 164 171 179 178 178 175 188 179 179 197 183 191 158 167 148 150 151 155 156 157 164 168 170 174 169 151 147 142 152 161 160 166 181 192 192 186 189 195 199 204 211 213
159 166 176 172 171 165 160 174 171 175 180 174 211 161 170 162 154 153 159 161 168 169 173 176 174 170 142 138 122 117 96 148 184 189 203 196 196 197 206 210 213 218 224
176 174 176 170 166 172 163 168 157 157 168 151 167 163 168 167 169 166 166 167 173 172 176 177 180 162 154 162 153 135 142 163 231 215 219 208 207 208 217 222 219 223 227
180 179 176 166 166 171 159 145 129 125 133 160 155 174 172 173 166 175 176 173 179 180 184 182 184 178 172 187 166 150 149 193 157 195 221 221 208 217 223 224 224 226 228
192 177 169 164 165 168 167 162 164 160 168 185 181 173 178 175 180 180 184 183 184 182 183 187 187 181 172 180 168 157 122 139 161 173 221 228 224 219 221 230 231 231 229
185 175 164 161 162 165 174 177 172 174 162 154 177 189 189 184 192 186 187 188 187 186 186 182 188 184 175 177 178 161 137 114 108 134 177 219 235 235 231 221 228 234 229
175 179 165 166 171 169 174 183 182 177 176 183 180 185 199 199 200 191 189 185 185 183 183 186 180 170 166 166 175 166 161 160 169 127 142 177 214 231 234 238 230 231 231